Observations for Trim Patrick St
| Time | AQI | Temp °C | Hum % | Pres Pa | CO μg/m³ | H₂S μg/m³ | NO μg/m³ | NO₂ μg/m³ | O₃ μg/m³ | SO₂ μg/m³ | PM1 μg/m³ | PM2.5 μg/m³ | PM10 μg/m³ |
|---|---|---|---|---|---|---|---|---|---|---|---|---|---|
| Saturday 8 August 2026 | |||||||||||||
| 23:24 | 2 | 19.9 | 62 | 75,646 | 0 | 3.03 | 1.63 | 16.36 | 41.22 | 1 | 3.71 | 7.84 | 8.62 |
| 23:23 | 2 | 19.9 | 63 | 75,701 | 0 | 3.93 | 1.37 | 21.1 | 39.75 | 1.59 | 3.71 | 7.83 | 8.61 |
| 23:22 | 2 | 19.9 | 63 | 75,747 | 0 | 5.21 | 1.59 | 19.43 | 46.31 | 1.67 | 2.86 | 6.34 | 6.98 |
| 23:21 | 2 | 19.9 | 64 | 75,770 | 0 | 5.71 | 1.77 | 21.13 | 40.27 | 1.19 | 2.86 | 7.77 | 8.54 |
| 23:20 | 2 | 19.9 | 64 | 75,782 | 0 | 6 | 1.48 | 22.16 | 51.86 | 1.82 | 4.57 | 8.47 | 9.31 |
| 23:19 | 2 | 19.9 | 63 | 75,798 | 0 | 5.29 | 1.32 | 19.99 | 38.59 | 1.85 | 5.43 | 10.01 | 11.01 |
| 23:18 | 2 | 19.9 | 63 | 75,796 | 0 | 5.98 | 1.42 | 20.53 | 42.14 | 2.27 | 4.57 | 8.55 | 9.41 |
| 23:17 | 2 | 20 | 60 | 75,788 | 0 | 6.21 | 1.21 | 26.34 | 37.09 | 1.48 | 5.43 | 10.21 | 11.23 |
| 23:16 | 2 | 20 | 63 | 75,796 | 0 | 5.37 | 1.32 | 19.94 | 40.24 | 2.21 | 2.86 | 7.79 | 8.57 |
| 23:15 | 2 | 20 | 63 | 75,804 | 0 | 6.5 | 1.78 | 28.34 | 49.11 | 1.66 | 5.43 | 9.27 | 10.19 |
| 23:14 | 2 | 20 | 63 | 75,809 | 0 | 5.58 | 2.16 | 20.21 | 39.01 | 2.02 | 4.57 | 9.25 | 10.18 |
| 23:13 | 2 | 20 | 61 | 75,831 | 0 | 4 | 1.91 | 27.22 | 36.98 | 2.14 | 3.71 | 8.66 | 9.52 |
| 23:12 | 2 | 20 | 63 | 75,859 | 0 | 4.95 | 2.12 | 17.29 | 38.87 | 2.38 | 4.57 | 8.55 | 9.41 |
| 23:11 | 2 | 20 | 64 | 75,868 | 0 | 6.84 | 1.34 | 20.2 | 38.93 | 2.58 | 2.86 | 7.76 | 8.54 |
| 23:10 | 2 | 20 | 63 | 75,872 | 0 | 7.26 | 1.26 | 32.37 | 36.99 | 1.78 | 4.57 | 7.77 | 8.55 |
| 23:09 | 2 | 20.1 | 62 | 75,859 | 0 | 7.45 | 1.27 | 22.26 | 41.79 | 2.89 | 4.57 | 7.84 | 8.63 |
| 23:08 | 2 | 20 | 62 | 75,851 | 0 | 7.63 | 1.25 | 25.52 | 44.11 | 2.4 | 2.86 | 7.88 | 8.67 |
| 23:07 | 2 | 20.1 | 62 | 75,845 | 0 | 6.58 | 1.24 | 25.38 | 38.04 | 2.44 | 2.86 | 6.41 | 7.05 |
| 23:06 | 2 | 20.1 | 62 | 75,831 | 0 | 7.26 | 1.24 | 22.95 | 39.75 | 3.08 | 4.57 | 7.86 | 8.65 |
| 23:05 | 2 | 20.1 | 62 | 75,819 | 0 | 8 | 1.27 | 23.78 | 35.37 | 2.86 | 2.86 | 7.86 | 8.64 |